Location: Aumont
(49.2291°N, 2.5542°E)
Time: 01:25:40
(UTC+00:00)

Daily predictions for brighter satellites

Satellite Brightness Start Highest point End
(mag) Time Altitude Azimuth Time Altitude Azimuth Time Altitude Azimuth
ACS3 Solar Sail 4.0 02:01:12 10° NE 02:03:45 18° ENE 02:03:45 18° ENE
ADEOS Rocket 4.3 02:33:40 10° NNE 02:38:45 41° ENE 02:38:45 41° ENE
BREEZE-M DEB (TANK) 4.5 02:53:28 78° SE 02:53:28 78° SE 03:13:07 10° ESE
Cosmos 2219 Rocket 3.8 02:55:06 30° ENE 02:55:06 30° ENE 02:58:39 10° NE
USA 267 3.4 03:14:11 10° ENE 03:20:18 67° ESE 03:20:18 67° ESE
Cosmos 1980 Rocket 4.5 03:27:56 13° N 03:27:56 13° N 03:28:56 10° N
H-2A R/B 4.0 03:26:44 10° NNE 03:28:05 19° NNE 03:28:05 19° NNE
USA 238 DEB 4.3 03:33:04 44° N 03:33:04 44° N 03:38:31 10° NE
USA 238 4.2 03:33:10 44° N 03:33:10 44° N 03:38:38 10° NE
Cosmos 2278 Rocket 3.8 03:29:48 21° N 03:32:25 30° NE 03:37:22 10° ESE
Cosmos 2333 Rocket 3.4 03:39:30 34° N 03:39:30 34° N 03:42:52 10° NNE
COSMOS 2455 3.3 03:45:06 51° N 03:45:06 51° N 03:49:50 10° NNE
ADEOS II 4.3 03:39:01 10° N 03:39:55 15° N 03:39:55 15° N
Lacrosse 5 rocket 3.9 03:46:58 13° NE 03:46:58 13° NE 03:47:23 10° NE
Cosmos 2298 Rocket 4.4 03:46:57 58° NE 03:46:57 58° NE 03:51:15 10° NNE
ACS3 Solar Sail 2.1 03:43:16 10° N 03:47:53 54° N 03:47:53 54° N
BlueWalker 3 4.2 03:53:51 21° ESE 03:53:51 21° ESE 03:55:07 10° ESE
Resurs 1-4 Rocket 4.5 03:47:59 10° N 03:48:14 11° N 03:48:14 11° N
CENTAUR R/B 4.3 03:52:18 22° NNW 03:55:36 30° NNE 04:03:02 10° ENE
Cosmos 2360 Rocket 2.9 03:59:09 42° N 03:59:09 42° N 04:03:13 10° NNE
Cosmos 2322 Rocket 3.1 03:59:31 37° N 03:59:31 37° N 04:03:24 10° NNE
USA 234 3.1 03:51:50 10° SE 03:58:22 69° SW 03:58:53 66° WSW
Gbstr 26 Del rocket 4.3 03:59:16 39° SSE 03:59:48 41° SE 04:05:06 10° ENE
SL-16 R/B 3.6 04:06:02 25° NNW 04:06:02 25° NNW 04:09:07 10° NNE
Cosmos 44 Rocket 3.5 04:05:02 71° NNE 04:05:22 74° NE 04:10:31 10° SE
Cosmos 1943 Rocket 2.9 04:06:17 22° NNW 04:09:41 51° NE 04:15:01 10° SE
Meteor 2-14 Rocket 4.5 04:05:45 10° S 04:11:51 79° E 04:17:57 10° NNE
Okean 1-7 3.8 04:13:10 43° NNE 04:13:10 43° NNE 04:16:07 10° NNE
H-2A R/B 4.4 04:08:42 10° NNE 04:11:15 38° NE 04:11:15 38° NE
NOSS 2-1 (C) 4.5 04:14:58 34° E 04:14:58 34° E 04:17:12 10° ENE
ARGOS 3.0 04:09:39 10° NNE 04:15:06 79° WNW 04:16:17 56° SW
PAYLOAD A 4.1 04:10:29 10° NNE 04:15:56 81° ESE 04:20:30 14° SSW
Cosmos 1908 Rocket 4.4 04:11:46 10° N 04:16:06 49° ENE 04:20:23 10° SSE
Cosmos 1140 Rocket 3.5 04:15:55 38° NNW 04:17:55 78° ENE 04:23:01 10° SSE
NOSS 2-1 (D) 4.3 04:19:05 37° E 04:19:05 37° E 04:21:17 10° NE
Timation 2 Rocket 4.1 04:14:49 20° NNW 04:19:41 78° ENE 04:26:07 10° SE
CZ-2C R/B 2.3 04:15:27 10° NNE 04:20:27 79° WNW 04:21:33 55° SSW
Cosmos 1809 Rocket 4.3 04:17:40 10° SSW 04:23:47 83° W 04:29:55 10° N
ADEOS Rocket 3.5 04:19:21 10° N 04:25:22 43° WNW 04:25:40 43° WNW
NOSS 3-1 (C) 3.0 04:27:25 40° SSW 04:29:10 74° SE 04:34:52 10° NE
Iridium 4 Rocket 4.1 04:27:15 10° N 04:31:29 45° E 04:35:30 10° SSE
SJ 16-02 3.9 04:28:43 10° N 04:31:42 18° NE 04:34:40 10° E
Cosmos 2100 Rocket 3.8 04:25:45 10° NNW 04:31:54 79° W 04:38:03 10° S
Cosmos 2219 Rocket 2.4 04:36:49 44° WNW 04:37:21 45° NW 04:42:48 10° NNE
SL-24 R/B - RUBIN 2 4.0 04:39:22 48° W 04:40:17 55° NW 04:45:06 10° NE
IRS-1D 4.1 04:35:34 10° NNE 04:40:29 55° E 04:45:18 10° S
TIMED 4.3 04:40:17 37° NNW 04:41:55 89° WSW 04:46:11 10° SSE
NOSS 0 Rocket 4.5 04:37:42 10° S 04:43:42 59° ESE 04:49:45 10° NE
COSMOS 2428 2.6 04:41:30 10° SSW 04:47:07 90° WNW 04:52:52 10° NNE
USA 59 Rocket -0.9 04:50:48 70° N 04:50:48 70° N 04:53:34 10° NE
SL-08 RB Rocket 3.8 04:47:37 10° N 04:52:01 49° WNW 04:53:29 35° WSW
Cosmos 1459 Rocket 4.0 04:46:48 10° NNW 04:53:05 63° W 04:59:19 10° S
Cosmos 1864 Rocket 4.4 04:47:44 10° NNW 04:54:01 79° W 05:00:20 10° S
Cosmos 2322 3.6 04:50:01 16° SW 04:54:36 71° WNW 05:00:18 10° NNE
FengYun 1-2 T 4.2 04:51:28 10° NNE 04:57:03 85° WNW 05:02:39 10° SSW
COSMO-SKYMED 1 2.8 04:54:50 10° SSE 04:58:55 67° ENE 05:03:02 10° N
Meteor 2-21 4.4 04:53:27 10° SSW 04:59:28 62° WNW 05:05:30 10° N
Cosmos 407 Rocket 3.4 04:54:47 10° NNW 04:59:52 88° WSW 05:04:58 10° SSE
SKYMED 2 3.5 04:55:53 10° SSE 05:00:13 87° WSW 05:04:36 10° NNW
Cosmos 1727 Rocket 4.2 04:56:14 10° SW 05:02:06 44° WNW 05:08:04 10° N
Cosmos 2228 Rocket 3.7 05:03:28 33° WNW 05:03:28 33° WNW 05:07:16 10° N
Cosmos 1725 Rocket 3.9 04:57:14 10° NNW 05:03:33 75° W 05:09:51 10° S
USA 267 3.4 04:57:18 10° ENE 05:03:42 58° NNW 05:07:39 24° W
Cosmos 1980 4.2 05:01:22 10° SSW 05:06:55 63° ESE 05:12:32 10° NNE
H-2A R/B 3.9 05:07:38 10° NNW 05:08:34 12° NNW 05:08:34 12° NNW
Cosmos 1802 Rocket 4.0 05:05:09 10° NNW 05:11:25 60° W 05:17:34 10° S
NOSS 3-1 (A) 3.3 05:08:40 10° SSW 05:13:20 68° SE 05:19:00 10° NE
Cosmos 2233 Rocket 4.0 05:08:26 10° N 05:14:48 87° W 05:21:05 10° S
Cosmos 1328 3.9 05:12:49 10° SSW 05:16:17 42° WNW 05:19:47 10° N
Cosmos 2278 Rocket 2.2 05:11:40 12° NW 05:16:51 59° WSW 05:22:22 10° S
Cosmos 1703 Rocket 3.6 05:13:24 10° SSW 05:17:40 55° WNW 05:22:01 10° N
Cosmos 2251 Rocket 3.7 05:13:20 10° NNW 05:18:43 77° ENE 05:24:04 10° SSE
NOSS 2-1 (E) 2.9 05:18:52 27° WSW 05:20:25 52° NW 05:23:26 10° NE
CZ-3 R/B 4.2 05:16:20 10° SSW 05:20:33 13° S 05:23:34 10° SSE
Cosmos 1939 Rocket 3.4 05:17:51 10° N 05:21:17 31° WNW 05:23:42 16° WSW
Lacrosse 5 rocket 2.5 05:20:39 19° NNW 05:21:42 22° N 05:24:26 10° NE
Meteor 2-16 Rocket 4.4 05:15:59 10° SSW 05:22:03 67° WNW 05:28:11 10° N
Cosmos 2173 Rocket 4.4 05:16:48 10° NNW 05:22:15 36° W 05:27:41 10° SSW
Cosmos 2333 Rocket 3.8 05:21:32 15° NW 05:22:49 16° NNW 05:26:19 10° N
Cosmos 2237 Rocket 2.4 05:17:31 10° SSW 05:23:11 77° ESE 05:28:51 10° NNE
USA-17 4.1 05:22:08 25° NW 05:23:49 84° SW 05:27:10 10° SE
SL-08 R/B 4.4 05:19:38 10° NNW 05:25:39 63° W 05:31:43 10° S
Cosmos 2292 Rocket 3.7 05:23:54 10° SSW 05:28:07 66° WNW 05:33:38 10° N
BlueWalker 3 3.2 05:27:40 20° WSW 05:28:44 23° SW 05:31:38 10° S
USA 276 3.9 05:29:39 13° SW 05:29:53 13° SW 05:31:19 10° S
COSMOS 2455 4.2 05:28:15 17° WNW 05:30:54 22° NNW 05:35:29 10° NNE
ACS3 Solar Sail 3.2 05:27:52 10° NNW 05:31:18 16° NW 05:32:02 16° WNW
Meteor 1-24 Rocket 3.9 05:27:18 10° SSW 05:32:52 48° WNW 05:38:16 10° N
Helios 1A Rocket 3.1 05:30:18 10° SSW 05:33:25 34° W 05:36:22 11° NNW
Cosmos 2242 Rocket 4.5 05:29:58 10° S 05:34:13 53° E 05:38:30 10° NNE
Cosmos 2369 Rocket 3.6 05:29:17 10° NNW 05:34:32 36° NE 05:39:45 10° ESE
CZ-4 R/B 4.0 05:31:02 10° N 05:35:50 54° WNW 05:40:32 10° SW
Cosmos 1782 Rocket 3.7 05:33:42 10° NNW 05:37:57 48° W 05:42:09 10° SSW
USA 234 4.5 05:37:20 10° S 05:42:11 22° SW 05:46:14 13° W
Cosmos 2360 Rocket 3.9 05:40:55 13° NW 05:43:00 15° NNW 05:46:13 10° N
Cosmos 2322 Rocket 3.9 05:41:21 12° NW 05:43:24 14° NNW 05:46:22 10° N
Cosmos 2123 Rocket 4.3 05:37:49 10° SW 05:43:38 41° WNW 05:49:27 10° N
Meteor 2-5 Rocket 4.1 05:38:26 10° SW 05:44:04 45° WNW 05:49:41 10° N
NOAA 12 4.2 05:39:56 10° N 05:45:07 54° WNW 05:50:17 10° SW
Cosmos 1420 Rocket 4.1 05:40:04 10° SSW 05:45:20 86° ESE 05:50:40 10° NNE
Gbstr 26 Del rocket 3.6 05:41:19 12° WSW 05:46:03 81° NNW 05:52:25 10° ENE
CENTAUR R/B 3.8 05:40:13 10° NW 05:47:59 56° NE 05:57:03 10° ESE
SL-16 R/B 4.3 05:49:37 10° NNW 05:50:18 10° NNW 05:50:59 10° NNW
ARIANE 5 R/B 4.4 05:45:59 10° NNE 05:50:35 35° E 05:55:13 10° SSE
Cosmos 1943 Rocket 3.0 05:48:23 10° NW 05:53:08 30° WSW 05:57:51 10° SSW
Cosmos 1812 2.1 05:54:02 10° N 05:57:00 79° E 05:59:54 10° SSE
CZ-2C R/B 4.1 05:55:08 10° NNW 05:57:45 14° NW 06:00:23 10° W
Cosmos 1300 Rocket 4.4 05:54:37 10° NNW 05:58:18 27° W 06:01:57 10° SSW
SMAP 4.1 05:54:56 10° NNE 05:59:29 51° E 06:04:01 10° S
CZ-2D R/B 4.5 05:59:10 10° NNE 06:02:10 38° E 06:05:09 10° S
Cosmos 2346 Rocket 4.4 05:56:05 10° SSW 06:02:13 68° WNW 06:08:20 10° N
NOSS 2-1 (C) 4.2 06:00:52 11° W 06:03:14 20° NW 06:05:35 10° NNE
NOSS 2-1 (D) 4.3 06:04:57 10° W 06:07:17 18° NNW 06:09:29 10° NNE
SJ 16-02 1.3 06:06:00 10° NNW 06:10:17 64° WSW 06:14:30 10° S
Iridium 4 Rocket 4.4 06:07:49 10° NNW 06:10:51 19° WNW 06:13:46 10° WSW
Aureole 3 Rocket 3.5 06:07:08 10° NNW 06:11:18 60° W 06:17:00 10° S
Okean 1 Rocket 4.1 06:07:22 10° N 06:11:37 48° ENE 06:15:48 10° SSE
CBERS-1 4.0 06:10:10 10° NNE 06:15:17 72° WNW 06:20:22 10° SSW
